Time,TemperatureF,DewpointF,PressureIn,WindDirection,WindDirectionDegrees,WindSpeedMPH,WindSpeedGustMPH,Humidity,HourlyPrecipIn,Conditions,Clouds,dailyrainin,SoftwareType,DateUTC
2013-06-07 00:00:00,65.8,64.2,29.98,West,270,0.7,2.2,93,0.00,,,0.00,fowsr,2013-06-07 04:00:00,
2013-06-07 00:05:00,65.8,64.2,29.97,North,0,0.7,1.6,93,0.00,,,0.00,fowsr,2013-06-07 04:05:00,
2013-06-07 00:10:00,65.8,64.2,29.98,South,180,0.7,1.6,93,0.00,,,0.00,fowsr,2013-06-07 04:10:00,
2013-06-07 00:15:00,65.8,64.5,29.97,NW,315,0.7,1.6,94,0.00,,,0.00,fowsr,2013-06-07 04:15:00,
2013-06-07 00:20:00,65.8,64.5,29.97,South,180,1.6,2.2,94,0.00,,,0.00,fowsr,2013-06-07 04:20:00,
2013-06-07 00:25:00,65.8,64.5,29.97,NW,315,0.7,2.2,94,0.00,,,0.00,fowsr,2013-06-07 04:25:00,
2013-06-07 00:30:00,65.8,64.7,29.97,NW,315,2.2,4.5,95,0.00,,,0.00,fowsr,2013-06-07 04:30:00,
2013-06-07 00:35:00,65.8,64.7,29.97,SW,225,3.1,3.8,95,0.00,,,0.00,fowsr,2013-06-07 04:35:00,
2013-06-07 00:40:00,65.8,64.7,29.97,East,90,0.0,1.6,95,0.00,,,0.00,fowsr,2013-06-07 04:40:00,
2013-06-07 00:45:00,65.8,64.7,29.97,NE,45,1.6,6.0,95,0.00,,,0.00,fowsr,2013-06-07 04:45:00,
2013-06-07 00:50:00,65.8,64.7,29.97,NE,45,0.7,1.6,95,0.00,,,0.00,fowsr,2013-06-07 04:50:00,
2013-06-07 00:55:00,65.8,64.7,29.96,North,0,0.0,0.7,95,0.00,,,0.00,fowsr,2013-06-07 04:55:00,
2013-06-07 01:00:00,65.8,64.7,29.96,East,90,0.7,2.2,95,0.00,,,0.00,fowsr,2013-06-07 05:00:00,
2013-06-07 01:05:00,65.8,64.9,29.95,NE,45,0.7,1.6,96,0.00,,,0.00,fowsr,2013-06-07 05:05:00,
2013-06-07 01:10:00,65.8,64.9,29.96,North,0,0.7,2.2,96,0.00,,,0.00,fowsr,2013-06-07 05:10:00,
2013-06-07 01:15:00,65.8,64.9,29.95,NW,315,2.2,3.8,96,0.00,,,0.00,fowsr,2013-06-07 05:15:00,
2013-06-07 01:20:00,65.8,64.9,29.95,West,270,3.1,3.8,96,0.00,,,0.00,fowsr,2013-06-07 05:20:00,
2013-06-07 01:25:00,65.8,64.9,29.95,North,0,0.7,3.1,96,0.00,,,0.00,fowsr,2013-06-07 05:25:00,
2013-06-07 01:30:00,65.8,64.9,29.95,South,180,1.6,3.1,96,0.00,,,0.00,fowsr,2013-06-07 05:30:00,
2013-06-07 01:35:00,65.8,64.9,29.94,West,270,0.7,2.2,96,0.00,,,0.00,fowsr,2013-06-07 05:35:00,
2013-06-07 01:40:00,65.8,64.9,29.94,North,0,0.7,1.6,96,0.00,,,0.00,fowsr,2013-06-07 05:40:00,
2013-06-07 01:45:00,65.8,64.9,29.94,East,90,0.7,2.2,96,0.00,,,0.00,fowsr,2013-06-07 05:45:00,
2013-06-07 01:50:00,65.8,64.9,29.94,SE,135,0.7,1.6,96,0.00,,,0.00,fowsr,2013-06-07 05:50:00,
2013-06-07 01:55:00,65.8,64.9,29.94,West,270,0.7,3.1,96,0.00,,,0.00,fowsr,2013-06-07 05:55:00,
2013-06-07 02:00:00,65.8,64.9,29.94,South,180,1.6,2.2,96,0.00,,,0.00,fowsr,2013-06-07 06:00:00,
2013-06-07 02:05:00,65.8,64.9,29.94,NW,315,1.6,3.1,96,0.00,,,0.00,fowsr,2013-06-07 06:05:00,
2013-06-07 02:10:00,65.8,65.2,29.93,NW,315,1.6,2.2,97,0.00,,,0.00,fowsr,2013-06-07 06:10:00,
2013-06-07 02:15:00,65.8,65.2,29.93,West,270,3.1,5.4,97,0.00,,,0.00,fowsr,2013-06-07 06:15:00,
2013-06-07 02:20:00,65.8,65.2,29.93,NW,315,0.7,3.1,97,0.00,,,0.00,fowsr,2013-06-07 06:20:00,
2013-06-07 02:25:00,65.7,65.0,29.93,North,0,0.7,2.2,97,0.00,,,0.00,fowsr,2013-06-07 06:25:00,
2013-06-07 02:30:00,65.7,65.0,29.93,South,180,1.6,4.5,97,0.00,,,0.00,fowsr,2013-06-07 06:30:00,
2013-06-07 02:35:00,65.8,65.2,29.93,West,270,1.6,3.1,97,0.00,,,0.00,fowsr,2013-06-07 06:35:00,
2013-06-07 02:40:00,65.8,65.2,29.92,North,0,0.7,1.6,97,0.00,,,0.00,fowsr,2013-06-07 06:40:00,
2013-06-07 02:45:00,65.8,65.2,29.92,SW,225,2.2,6.0,97,0.00,,,0.00,fowsr,2013-06-07 06:45:00,
2013-06-07 02:55:00,65.8,65.2,29.92,North,0,0.7,1.6,97,0.00,,,0.00,fowsr,2013-06-07 06:55:00,
2013-06-07 03:00:00,65.8,65.2,29.91,SE,135,0.7,2.2,97,0.00,,,0.00,fowsr,2013-06-07 07:00:00,
2013-06-07 03:05:00,65.8,65.2,29.91,SW,225,0.7,1.6,97,0.00,,,0.00,fowsr,2013-06-07 07:05:00,
2013-06-07 03:10:00,65.7,65.2,29.91,North,0,0.0,1.6,98,0.00,,,0.00,fowsr,2013-06-07 07:10:00,
2013-06-07 03:15:00,65.7,65.2,29.90,West,270,2.2,5.4,98,0.00,,,0.00,fowsr,2013-06-07 07:15:00,
2013-06-07 03:20:00,65.7,65.2,29.90,North,0,1.6,3.8,98,0.00,,,0.00,fowsr,2013-06-07 07:20:00,
2013-06-07 03:25:00,65.8,65.4,29.90,West,270,0.7,2.2,98,0.00,,,0.00,fowsr,2013-06-07 07:25:00,
2013-06-07 03:30:00,65.8,65.4,29.89,South,180,2.2,6.0,98,0.00,,,0.00,fowsr,2013-06-07 07:30:00,
2013-06-07 03:35:00,65.8,65.4,29.89,SW,225,0.7,2.2,98,0.00,,,0.00,fowsr,2013-06-07 07:35:00,
2013-06-07 03:40:00,66.2,65.5,29.88,NW,315,0.7,1.6,97,0.00,,,0.00,fowsr,2013-06-07 07:40:00,
2013-06-07 03:45:00,66.2,65.5,29.88,South,180,1.6,3.1,97,0.00,,,0.00,fowsr,2013-06-07 07:45:00,
2013-06-07 03:50:00,66.4,65.7,29.88,East,90,1.6,2.2,97,0.00,,,0.00,fowsr,2013-06-07 07:50:00,
2013-06-07 03:55:00,66.4,65.7,29.88,NW,315,0.7,1.6,97,0.00,,,0.00,fowsr,2013-06-07 07:55:00,
2013-06-07 04:00:00,66.4,65.9,29.88,NW,315,1.6,3.8,98,0.00,,,0.00,fowsr,2013-06-07 08:00:00,
2013-06-07 04:05:00,66.4,65.9,29.88,NW,315,2.2,3.8,98,0.00,,,0.00,fowsr,2013-06-07 08:05:00,
2013-06-07 04:10:00,66.4,65.9,29.88,NW,315,0.7,1.6,98,0.00,,,0.00,fowsr,2013-06-07 08:10:00,
2013-06-07 04:15:00,66.4,65.9,29.88,East,90,0.7,3.1,98,0.00,,,0.00,fowsr,2013-06-07 08:15:00,
2013-06-07 04:20:00,66.4,65.9,29.88,NW,315,0.7,2.2,98,0.00,,,0.00,fowsr,2013-06-07 08:20:00,
2013-06-07 04:25:00,66.4,65.9,29.88,NW,315,0.7,3.1,98,0.00,,,0.00,fowsr,2013-06-07 08:25:00,
2013-06-07 04:30:00,66.4,65.9,29.87,NE,45,0.7,3.1,98,0.00,,,0.00,fowsr,2013-06-07 08:30:00,
2013-06-07 04:35:00,66.4,65.9,29.87,NW,315,0.7,1.6,98,0.00,,,0.00,fowsr,2013-06-07 08:35:00,
2013-06-07 04:40:00,66.4,65.9,29.88,NW,315,1.6,2.2,98,0.00,,,0.00,fowsr,2013-06-07 08:40:00,
2013-06-07 04:45:00,66.4,65.9,29.87,SW,225,0.7,2.2,98,0.00,,,0.00,fowsr,2013-06-07 08:45:00,
2013-06-07 04:50:00,66.4,65.9,29.88,NW,315,1.6,3.1,98,0.00,,,0.00,fowsr,2013-06-07 08:50:00,
2013-06-07 04:55:00,66.6,66.1,29.88,South,180,2.2,3.8,98,0.00,,,0.00,fowsr,2013-06-07 08:55:00,
2013-06-07 05:00:00,66.6,66.1,29.87,NW,315,1.6,3.8,98,0.00,,,0.00,fowsr,2013-06-07 09:00:00,
2013-06-07 05:05:00,66.4,65.9,29.87,South,180,1.6,3.1,98,0.00,,,0.00,fowsr,2013-06-07 09:05:00,
2013-06-07 05:10:00,66.4,65.9,29.87,SW,225,1.6,3.1,98,0.00,,,0.00,fowsr,2013-06-07 09:10:00,
2013-06-07 05:15:00,66.4,65.9,29.86,West,270,2.2,3.8,98,0.00,,,0.00,fowsr,2013-06-07 09:15:00,
2013-06-07 05:20:00,66.4,65.9,29.86,NW,315,0.7,2.2,98,0.00,,,0.00,fowsr,2013-06-07 09:20:00,
2013-06-07 05:25:00,66.6,66.1,29.86,North,0,1.6,3.8,98,0.00,,,0.00,fowsr,2013-06-07 09:25:00,
2013-06-07 05:30:00,66.9,66.5,29.86,North,0,1.6,3.1,98,0.00,,,0.00,fowsr,2013-06-07 09:30:00,
2013-06-07 05:35:00,66.9,66.7,29.86,South,180,0.7,3.1,99,0.00,,,0.00,fowsr,2013-06-07 09:35:00,
2013-06-07 05:40:00,67.1,66.9,29.86,NW,315,0.7,1.6,99,0.01,,,0.01,fowsr,2013-06-07 09:40:00,
2013-06-07 05:45:00,67.1,66.9,29.87,NW,315,1.6,4.5,99,0.01,,,0.01,fowsr,2013-06-07 09:45:00,
2013-06-07 05:50:00,67.1,66.9,29.86,North,0,0.7,2.2,99,0.01,,,0.01,fowsr,2013-06-07 09:50:00,
2013-06-07 05:55:00,67.1,66.9,29.85,West,270,2.2,3.1,99,0.02,,,0.02,fowsr,2013-06-07 09:55:00,
2013-06-07 06:00:00,67.3,67.1,29.85,West,270,2.2,3.8,99,0.02,,,0.02,fowsr,2013-06-07 10:00:00,
2013-06-07 06:05:00,67.5,67.2,29.88,West,270,1.6,3.8,99,0.04,,,0.04,fowsr,2013-06-07 10:05:00,
2013-06-07 06:15:00,67.6,67.4,29.87,East,90,0.0,0.0,99,0.04,,,0.04,fowsr,2013-06-07 10:15:00,
2013-06-07 06:20:00,67.8,67.6,29.87,North,0,0.0,0.7,99,0.04,,,0.04,fowsr,2013-06-07 10:20:00,
2013-06-07 06:25:00,67.8,67.6,29.88,SE,135,0.0,1.6,99,0.04,,,0.04,fowsr,2013-06-07 10:25:00,
2013-06-07 06:30:00,67.8,67.6,29.87,West,270,3.1,6.0,99,0.04,,,0.04,fowsr,2013-06-07 10:30:00,
2013-06-07 06:35:00,67.6,67.4,29.86,NW,315,1.6,2.2,99,0.04,,,0.04,fowsr,2013-06-07 10:35:00,
2013-06-07 06:40:00,67.6,67.4,29.87,West,270,0.7,1.6,99,0.04,,,0.04,fowsr,2013-06-07 10:40:00,
2013-06-07 06:45:00,67.6,67.4,29.87,North,0,0.0,0.7,99,0.02,,,0.04,fowsr,2013-06-07 10:45:00,
2013-06-07 06:50:00,67.6,67.4,29.87,West,270,0.0,0.7,99,0.02,,,0.04,fowsr,2013-06-07 10:50:00,
2013-06-07 06:55:00,67.6,67.4,29.87,SW,225,0.0,1.6,99,0.02,,,0.04,fowsr,2013-06-07 10:55:00,
2013-06-07 07:05:00,67.6,67.4,29.87,NE,45,0.0,0.7,99,0.01,,,0.04,fowsr,2013-06-07 11:05:00,
2013-06-07 07:10:00,67.6,67.4,29.87,NW,315,0.0,0.0,99,0.00,,,0.04,fowsr,2013-06-07 11:10:00,
2013-06-07 07:15:00,67.8,67.6,29.87,North,0,0.0,0.0,99,0.00,,,0.04,fowsr,2013-06-07 11:15:00,
2013-06-07 07:20:00,67.8,67.6,29.87,SE,135,0.7,2.2,99,0.00,,,0.04,fowsr,2013-06-07 11:20:00,
2013-06-07 07:25:00,67.8,67.6,29.87,NE,45,0.0,0.0,99,0.00,,,0.04,fowsr,2013-06-07 11:25:00,
2013-06-07 07:30:00,67.8,67.6,29.87,North,0,0.0,0.7,99,0.00,,,0.04,fowsr,2013-06-07 11:30:00,
2013-06-07 07:35:00,67.8,67.6,29.87,NW,315,0.0,0.7,99,0.00,,,0.04,fowsr,2013-06-07 11:35:00,
2013-06-07 07:40:00,67.8,67.6,29.87,North,0,0.0,0.0,99,0.00,,,0.04,fowsr,2013-06-07 11:40:00,
2013-06-07 07:45:00,68.0,67.8,29.87,NW,315,0.0,0.7,99,0.00,,,0.04,fowsr,2013-06-07 11:45:00,
2013-06-07 07:50:00,68.0,67.8,29.87,North,0,0.0,0.0,99,0.00,,,0.04,fowsr,2013-06-07 11:50:00,
2013-06-07 07:55:00,68.2,68.0,29.88,North,0,0.0,0.7,99,0.00,,,0.04,fowsr,2013-06-07 11:55:00,
2013-06-07 08:00:00,68.2,68.0,29.87,NW,315,0.0,1.6,99,0.00,,,0.04,fowsr,2013-06-07 12:00:00,
2013-06-07 08:05:00,68.2,68.0,29.88,NE,45,0.7,2.2,99,0.00,,,0.04,fowsr,2013-06-07 12:05:00,
2013-06-07 08:10:00,68.2,68.0,29.88,North,0,0.0,1.6,99,0.00,,,0.04,fowsr,2013-06-07 12:10:00,
2013-06-07 08:15:00,68.2,68.0,29.88,North,0,0.0,0.7,99,0.00,,,0.04,fowsr,2013-06-07 12:15:00,
2013-06-07 08:25:00,68.0,67.8,29.88,NW,315,0.7,1.6,99,0.00,,,0.04,fowsr,2013-06-07 12:25:00,
2013-06-07 08:30:00,68.0,67.8,29.88,North,0,0.0,1.6,99,0.00,,,0.04,fowsr,2013-06-07 12:30:00,
2013-06-07 08:40:00,68.2,68.0,29.87,NW,315,0.0,1.6,99,0.01,,,0.05,fowsr,2013-06-07 12:40:00,
2013-06-07 08:45:00,68.2,68.0,29.88,North,0,0.0,0.7,99,0.01,,,0.05,fowsr,2013-06-07 12:45:00,
2013-06-07 08:50:00,68.2,68.0,29.87,North,0,0.0,1.6,99,0.01,,,0.05,fowsr,2013-06-07 12:50:00,
2013-06-07 08:55:00,68.2,68.0,29.88,North,0,0.7,1.6,99,0.01,,,0.05,fowsr,2013-06-07 12:55:00,
2013-06-07 09:00:00,68.2,68.0,29.88,North,0,0.7,1.6,99,0.01,,,0.05,fowsr,2013-06-07 13:00:00,
2013-06-07 09:05:00,68.2,68.0,29.87,West,270,0.7,1.6,99,0.01,,,0.05,fowsr,2013-06-07 13:05:00,
2013-06-07 09:10:00,68.4,68.1,29.88,NW,315,0.7,2.2,99,0.01,,,0.05,fowsr,2013-06-07 13:10:00,
2013-06-07 09:15:00,68.4,68.1,29.87,North,0,0.7,2.2,99,0.01,,,0.05,fowsr,2013-06-07 13:15:00,
2013-06-07 09:20:00,68.4,68.1,29.88,South,180,0.7,1.6,99,0.01,,,0.05,fowsr,2013-06-07 13:20:00,
2013-06-07 09:25:00,68.4,68.1,29.88,East,90,0.0,1.6,99,0.01,,,0.05,fowsr,2013-06-07 13:25:00,
2013-06-07 09:30:00,68.4,68.1,29.88,NW,315,0.0,1.6,99,0.02,,,0.06,fowsr,2013-06-07 13:30:00,
2013-06-07 09:35:00,68.4,68.1,29.88,NW,315,0.7,1.6,99,0.02,,,0.06,fowsr,2013-06-07 13:35:00,
2013-06-07 09:40:00,68.4,68.1,29.88,North,0,0.0,1.6,99,0.01,,,0.06,fowsr,2013-06-07 13:40:00,
2013-06-07 09:45:00,68.2,68.0,29.88,NW,315,0.7,1.6,99,0.02,,,0.07,fowsr,2013-06-07 13:45:00,
2013-06-07 09:50:00,68.0,67.8,29.88,North,0,0.7,1.6,99,0.02,,,0.07,fowsr,2013-06-07 13:50:00,
2013-06-07 09:55:00,67.8,67.6,29.88,North,0,0.0,0.7,99,0.02,,,0.07,fowsr,2013-06-07 13:55:00,
2013-06-07 10:00:00,67.6,67.4,29.87,NW,315,0.7,2.2,99,0.04,,,0.08,fowsr,2013-06-07 14:00:00,
2013-06-07 10:05:00,67.6,67.4,29.88,North,0,0.0,0.7,99,0.05,,,0.09,fowsr,2013-06-07 14:05:00,
2013-06-07 10:10:00,67.6,67.4,29.88,North,0,0.7,1.6,99,0.06,,,0.11,fowsr,2013-06-07 14:10:00,
2013-06-07 10:15:00,67.6,67.4,29.87,NW,315,0.7,1.6,99,0.07,,,0.12,fowsr,2013-06-07 14:15:00,
2013-06-07 10:20:00,67.5,67.2,29.87,North,0,0.7,1.6,99,0.08,,,0.13,fowsr,2013-06-07 14:20:00,
2013-06-07 10:25:00,67.3,67.1,29.87,NW,315,1.6,3.1,99,0.09,,,0.14,fowsr,2013-06-07 14:25:00,
2013-06-07 10:30:00,67.3,67.1,29.88,North,0,0.7,2.2,99,0.08,,,0.14,fowsr,2013-06-07 14:30:00,
2013-06-07 10:35:00,67.5,67.2,29.87,NE,45,1.6,2.2,99,0.09,,,0.15,fowsr,2013-06-07 14:35:00,
2013-06-07 10:40:00,67.6,67.4,29.87,North,0,1.6,2.2,99,0.11,,,0.17,fowsr,2013-06-07 14:40:00,
2013-06-07 10:45:00,67.6,67.4,29.87,North,0,0.7,1.6,99,0.11,,,0.17,fowsr,2013-06-07 14:45:00,
2013-06-07 10:50:00,67.6,67.4,29.87,North,0,0.7,2.2,99,0.09,,,0.17,fowsr,2013-06-07 14:50:00,
2013-06-07 10:55:00,67.6,67.4,29.87,East,90,0.7,2.2,99,0.11,,,0.18,fowsr,2013-06-07 14:55:00,
2013-06-07 11:00:00,67.6,67.4,29.87,North,0,0.0,1.6,99,0.11,,,0.18,fowsr,2013-06-07 15:00:00,
2013-06-07 11:05:00,67.8,67.6,29.87,North,0,0.7,3.1,99,0.11,,,0.19,fowsr,2013-06-07 15:05:00,
2013-06-07 11:10:00,67.8,67.6,29.87,North,0,0.0,1.6,99,0.08,,,0.19,fowsr,2013-06-07 15:10:00,
2013-06-07 11:15:00,68.0,67.8,29.86,West,270,0.0,0.7,99,0.09,,,0.20,fowsr,2013-06-07 15:15:00,
2013-06-07 11:20:00,68.2,68.0,29.86,NW,315,0.7,1.6,99,0.09,,,0.21,fowsr,2013-06-07 15:20:00,
2013-06-07 11:25:00,68.4,68.1,29.86,NW,315,0.0,0.7,99,0.08,,,0.21,fowsr,2013-06-07 15:25:00,
2013-06-07 11:35:00,68.5,68.3,29.86,East,90,0.0,0.7,99,0.09,,,0.24,fowsr,2013-06-07 15:35:00,
2013-06-07 11:40:00,68.7,68.5,29.86,NW,315,0.7,1.6,99,0.08,,,0.24,fowsr,2013-06-07 15:40:00,
2013-06-07 11:45:00,68.7,68.5,29.86,SW,225,0.0,1.6,99,0.08,,,0.25,fowsr,2013-06-07 15:45:00,
2013-06-07 11:50:00,68.7,68.5,29.86,NW,315,0.0,1.6,99,0.08,,,0.25,fowsr,2013-06-07 15:50:00,
2013-06-07 11:55:00,68.9,68.7,29.85,NW,315,1.6,3.1,99,0.08,,,0.25,fowsr,2013-06-07 15:55:00,
2013-06-07 12:00:00,68.9,68.7,29.85,North,0,1.6,3.8,99,0.08,,,0.26,fowsr,2013-06-07 16:00:00,
2013-06-07 12:05:00,68.9,68.7,29.85,North,0,1.6,3.8,99,0.08,,,0.26,fowsr,2013-06-07 16:05:00,
2013-06-07 12:10:00,68.9,68.7,29.84,North,0,0.0,1.6,99,0.08,,,0.27,fowsr,2013-06-07 16:10:00,
2013-06-07 12:15:00,69.1,68.8,29.84,East,90,0.0,1.6,99,0.09,,,0.28,fowsr,2013-06-07 16:15:00,
2013-06-07 12:20:00,69.1,68.8,29.83,East,90,1.6,2.2,99,0.08,,,0.28,fowsr,2013-06-07 16:20:00,
2013-06-07 12:25:00,69.1,68.8,29.83,SW,225,1.6,3.1,99,0.08,,,0.28,fowsr,2013-06-07 16:25:00,
2013-06-07 12:30:00,69.1,68.8,29.82,SW,225,1.6,2.2,99,0.07,,,0.29,fowsr,2013-06-07 16:30:00,
2013-06-07 12:35:00,69.1,68.8,29.82,NW,315,1.6,3.1,99,0.07,,,0.29,fowsr,2013-06-07 16:35:00,
2013-06-07 12:40:00,69.1,68.8,29.82,NW,315,0.7,2.2,99,0.08,,,0.31,fowsr,2013-06-07 16:40:00,
2013-06-07 12:45:00,69.3,69.0,29.81,South,180,3.8,7.6,99,0.07,,,0.31,fowsr,2013-06-07 16:45:00,
2013-06-07 12:50:00,69.3,69.0,29.81,South,180,2.2,3.8,99,0.06,,,0.31,fowsr,2013-06-07 16:50:00,
2013-06-07 12:55:00,69.4,69.2,29.81,NE,45,1.6,3.8,99,0.06,,,0.31,fowsr,2013-06-07 16:55:00,
2013-06-07 13:00:00,69.3,69.0,29.81,North,0,0.0,1.6,99,0.06,,,0.31,fowsr,2013-06-07 17:00:00,
2013-06-07 13:05:00,69.3,69.0,29.81,North,0,1.6,3.8,99,0.05,,,0.31,fowsr,2013-06-07 17:05:00,
2013-06-07 13:10:00,68.9,68.7,29.80,North,0,0.7,2.2,99,0.05,,,0.32,fowsr,2013-06-07 17:10:00,
2013-06-07 13:15:00,68.9,68.7,29.80,North,0,1.6,3.1,99,0.06,,,0.33,fowsr,2013-06-07 17:15:00,
2013-06-07 13:20:00,68.5,68.3,29.79,West,270,1.6,3.1,99,0.06,,,0.34,fowsr,2013-06-07 17:20:00,
2013-06-07 13:25:00,68.4,68.1,29.77,SW,225,3.1,6.9,99,0.08,,,0.37,fowsr,2013-06-07 17:25:00,
2013-06-07 13:30:00,68.4,68.1,29.77,West,270,1.6,3.8,99,0.11,,,0.40,fowsr,2013-06-07 17:30:00,
2013-06-07 13:40:00,68.4,68.1,29.77,SW,225,2.2,4.5,99,0.15,,,0.45,fowsr,2013-06-07 17:40:00,
2013-06-07 13:45:00,68.4,68.1,29.77,SW,225,0.7,3.1,99,0.21,,,0.52,fowsr,2013-06-07 17:45:00,
2013-06-07 13:50:00,68.2,68.0,29.75,SW,225,5.4,8.3,99,0.29,,,0.60,fowsr,2013-06-07 17:50:00,
2013-06-07 13:55:00,68.2,68.0,29.75,SW,225,0.7,2.2,99,0.29,,,0.60,fowsr,2013-06-07 17:55:00,
2013-06-07 14:00:00,68.2,68.0,29.74,NW,315,2.2,3.8,99,0.31,,,0.61,fowsr,2013-06-07 18:00:00,
2013-06-07 14:13:00,68.5,68.3,29.74,West,270,3.1,7.6,99,0.33,,,0.64,fowsr,2013-06-07 18:13:00,
2013-06-07 14:20:00,68.9,68.7,29.74,SE,135,3.1,4.5,99,0.34,,,0.67,fowsr,2013-06-07 18:20:00,
2013-06-07 14:25:00,69.1,68.8,29.74,West,270,0.0,0.7,99,0.34,,,0.69,fowsr,2013-06-07 18:25:00,
2013-06-07 14:30:00,69.1,68.8,29.73,West,270,3.1,4.5,99,0.31,,,0.70,fowsr,2013-06-07 18:30:00,
2013-06-07 14:35:00,69.3,69.0,29.73,SE,135,0.7,3.1,99,0.31,,,0.70,fowsr,2013-06-07 18:35:00,
2013-06-07 14:40:00,69.3,69.0,29.73,South,180,1.6,3.1,99,0.28,,,0.70,fowsr,2013-06-07 18:40:00,
2013-06-07 14:45:00,69.4,69.2,29.73,SE,135,0.7,2.2,99,0.26,,,0.71,fowsr,2013-06-07 18:45:00,
2013-06-07 14:50:00,69.4,69.2,29.73,North,0,0.0,0.7,99,0.13,,,0.71,fowsr,2013-06-07 18:50:00,
2013-06-07 14:55:00,69.4,69.2,29.72,North,0,2.2,5.4,99,0.13,,,0.71,fowsr,2013-06-07 18:55:00,
2013-06-07 15:00:00,69.6,69.4,29.72,North,0,1.6,3.8,99,0.11,,,0.71,fowsr,2013-06-07 19:00:00,
2013-06-07 15:05:00,69.6,69.4,29.72,West,270,1.6,2.2,99,0.09,,,0.71,fowsr,2013-06-07 19:05:00,
2013-06-07 15:10:00,69.6,69.4,29.71,SE,135,0.0,0.7,99,0.08,,,0.71,fowsr,2013-06-07 19:10:00,
2013-06-07 15:20:00,69.6,69.4,29.71,NW,315,0.7,2.2,99,0.06,,,0.71,fowsr,2013-06-07 19:20:00,
2013-06-07 15:25:00,69.4,69.2,29.70,NW,315,0.7,2.2,99,0.04,,,0.71,fowsr,2013-06-07 19:25:00,
2013-06-07 15:30:00,69.3,69.0,29.72,SE,135,0.7,1.6,99,0.05,,,0.74,fowsr,2013-06-07 19:30:00,
2013-06-07 15:33:00,69.3,69.0,29.70,East,90,1.6,3.1,99,0.02,,,0.72,fowsr,2013-06-07 19:33:00,
2013-06-07 15:40:00,69.3,69.0,29.70,SW,225,1.6,2.2,99,0.06,,,0.76,fowsr,2013-06-07 19:40:00,
2013-06-07 15:45:00,69.3,69.0,29.69,NW,315,4.5,12.1,99,0.06,,,0.76,fowsr,2013-06-07 19:45:00,
2013-06-07 15:50:00,69.3,69.0,29.69,South,180,1.6,3.1,99,0.05,,,0.76,fowsr,2013-06-07 19:50:00,
2013-06-07 15:55:00,69.3,69.0,29.69,West,270,1.6,3.1,99,0.05,,,0.76,fowsr,2013-06-07 19:55:00,
2013-06-07 16:00:00,69.3,69.0,29.68,NW,315,1.6,3.8,99,0.05,,,0.76,fowsr,2013-06-07 20:00:00,
2013-06-07 16:05:00,69.8,69.3,29.69,North,0,2.2,3.8,98,0.05,,,0.76,fowsr,2013-06-07 20:05:00,
2013-06-07 16:10:00,70.2,69.7,29.68,South,180,2.2,3.1,98,0.05,,,0.76,fowsr,2013-06-07 20:10:00,
2013-06-07 16:15:00,70.5,70.1,29.67,SE,135,2.2,3.8,98,0.05,,,0.76,fowsr,2013-06-07 20:15:00,
2013-06-07 16:20:00,70.9,70.4,29.67,NW,315,3.1,4.5,98,0.05,,,0.76,fowsr,2013-06-07 20:20:00,
2013-06-07 16:25:00,70.9,70.4,29.68,North,0,1.6,4.5,98,0.05,,,0.76,fowsr,2013-06-07 20:25:00,
2013-06-07 16:30:00,70.7,70.2,29.68,NW,315,1.6,3.1,98,0.04,,,0.76,fowsr,2013-06-07 20:30:00,
2013-06-07 16:35:00,70.5,70.1,29.68,ESE,112,1.6,3.1,98,0.04,,,0.76,fowsr,2013-06-07 20:35:00,
2013-06-07 16:43:00,70.3,69.9,29.67,NW,315,0.7,2.2,98,0.01,,,0.76,fowsr,2013-06-07 20:43:00,
2013-06-07 16:50:00,69.6,69.4,29.67,NE,45,1.6,3.8,99,0.00,,,0.76,fowsr,2013-06-07 20:50:00,
2013-06-07 16:55:00,69.3,69.0,29.67,NW,315,0.7,2.2,99,0.00,,,0.76,fowsr,2013-06-07 20:55:00,
2013-06-07 17:00:00,68.9,68.7,29.67,North,0,0.7,1.6,99,0.00,,,0.76,fowsr,2013-06-07 21:00:00,
2013-06-07 17:05:00,68.9,68.7,29.67,North,0,1.6,3.1,99,0.00,,,0.76,fowsr,2013-06-07 21:05:00,
2013-06-07 17:10:00,68.9,68.7,29.67,North,0,0.7,2.2,99,0.00,,,0.76,fowsr,2013-06-07 21:10:00,
2013-06-07 17:15:00,68.9,68.7,29.67,North,0,0.7,2.2,99,0.00,,,0.76,fowsr,2013-06-07 21:15:00,
2013-06-07 17:23:00,68.9,68.7,29.66,North,0,1.6,3.1,99,0.00,,,0.76,fowsr,2013-06-07 21:23:00,
2013-06-07 17:30:00,69.3,69.0,29.66,East,90,1.6,2.2,99,0.00,,,0.76,fowsr,2013-06-07 21:30:00,
2013-06-07 17:35:00,69.4,69.2,29.66,North,0,2.2,3.8,99,0.00,,,0.76,fowsr,2013-06-07 21:35:00,
2013-06-07 17:40:00,69.6,69.4,29.65,NW,315,1.6,3.1,99,0.00,,,0.76,fowsr,2013-06-07 21:40:00,
2013-06-07 17:45:00,69.6,69.4,29.65,NW,315,2.2,3.1,99,0.00,,,0.76,fowsr,2013-06-07 21:45:00,
2013-06-07 17:50:00,69.8,69.3,29.67,NNE,22,1.6,3.1,98,0.00,,,0.76,fowsr,2013-06-07 21:50:00,
2013-06-07 17:55:00,69.8,69.3,29.64,NE,45,1.6,3.1,98,0.00,,,0.76,fowsr,2013-06-07 21:55:00,
2013-06-07 18:00:00,70.0,69.5,29.64,NE,45,1.6,3.1,98,0.00,,,0.76,fowsr,2013-06-07 22:00:00,
2013-06-07 18:08:00,70.0,69.5,29.64,North,0,2.2,6.0,98,0.00,,,0.76,fowsr,2013-06-07 22:08:00,
2013-06-07 18:15:00,70.2,69.7,29.63,NW,315,1.6,3.1,98,0.00,,,0.76,fowsr,2013-06-07 22:15:00,
2013-06-07 18:20:00,70.2,69.7,29.63,SW,225,1.6,3.1,98,0.00,,,0.76,fowsr,2013-06-07 22:20:00,
2013-06-07 18:25:00,70.2,69.7,29.63,North,0,3.1,8.3,98,0.00,,,0.76,fowsr,2013-06-07 22:25:00,
2013-06-07 18:30:00,70.2,69.7,29.63,South,180,2.2,6.0,98,0.00,,,0.76,fowsr,2013-06-07 22:30:00,
2013-06-07 18:35:00,70.3,69.9,29.62,NW,315,1.6,4.5,98,0.00,,,0.76,fowsr,2013-06-07 22:35:00,
2013-06-07 18:40:00,70.3,69.9,29.62,SW,225,1.6,2.2,98,0.00,,,0.76,fowsr,2013-06-07 22:40:00,
2013-06-07 18:45:00,70.3,69.9,29.62,SE,135,2.2,3.1,98,0.00,,,0.76,fowsr,2013-06-07 22:45:00,
2013-06-07 18:50:00,70.3,69.9,29.61,NW,315,2.2,3.8,98,0.00,,,0.76,fowsr,2013-06-07 22:50:00,
2013-06-07 18:55:00,70.5,70.1,29.61,West,270,1.6,3.1,98,0.00,,,0.76,fowsr,2013-06-07 22:55:00,
2013-06-07 19:00:00,70.5,70.1,29.61,West,270,1.6,3.1,98,0.01,,,0.77,fowsr,2013-06-07 23:00:00,
2013-06-07 19:05:00,70.5,70.1,29.61,NW,315,1.6,3.1,98,0.02,,,0.78,fowsr,2013-06-07 23:05:00,
2013-06-07 19:10:00,70.5,70.1,29.61,East,90,1.6,3.1,98,0.02,,,0.78,fowsr,2013-06-07 23:10:00,
2013-06-07 19:18:00,70.5,70.1,29.61,WNW,292,2.2,3.8,98,0.02,,,0.78,fowsr,2013-06-07 23:18:00,
2013-06-07 19:25:00,70.2,69.7,29.61,NW,315,1.6,3.1,98,0.02,,,0.78,fowsr,2013-06-07 23:25:00,
2013-06-07 19:30:00,70.0,69.5,29.60,NW,315,1.6,3.1,98,0.02,,,0.78,fowsr,2013-06-07 23:30:00,
2013-06-07 19:35:00,70.0,69.5,29.60,North,0,2.2,3.8,98,0.02,,,0.78,fowsr,2013-06-07 23:35:00,
2013-06-07 19:40:00,69.8,69.3,29.63,South,180,1.6,2.2,98,0.02,,,0.78,fowsr,2013-06-07 23:40:00,
2013-06-07 19:46:00,70.0,69.5,29.60,East,90,1.6,3.1,98,0.02,,,0.78,fowsr,2013-06-07 23:46:00,
2013-06-07 19:55:00,69.6,69.4,29.60,South,180,2.2,3.8,99,0.02,,,0.78,fowsr,2013-06-07 23:55:00,
2013-06-07 20:00:00,69.6,69.4,29.60,SE,135,1.6,3.8,99,0.02,,,0.78,fowsr,2013-06-08 00:00:00,
2013-06-07 20:08:00,69.6,69.4,29.59,North,0,2.2,4.5,99,0.02,,,0.78,fowsr,2013-06-08 00:08:00,
2013-06-07 20:15:00,69.6,69.4,29.59,NW,315,0.7,1.6,99,0.00,,,0.78,fowsr,2013-06-08 00:15:00,
2013-06-07 20:20:00,69.3,69.0,29.59,West,270,0.7,2.2,99,0.00,,,0.78,fowsr,2013-06-08 00:20:00,
2013-06-07 20:25:00,69.3,69.0,29.59,South,180,1.6,3.1,99,0.00,,,0.78,fowsr,2013-06-08 00:25:00,
2013-06-07 20:30:00,69.3,69.0,29.59,North,0,1.6,3.1,99,0.00,,,0.78,fowsr,2013-06-08 00:30:00,
2013-06-07 20:38:00,69.3,69.0,29.59,West,270,1.6,3.1,99,0.00,,,0.78,fowsr,2013-06-08 00:38:00,
2013-06-07 20:45:00,68.9,68.7,29.59,NW,315,2.2,3.8,99,0.00,,,0.78,fowsr,2013-06-08 00:45:00,
2013-06-07 20:50:00,68.9,68.7,29.59,NW,315,1.6,3.1,99,0.00,,,0.78,fowsr,2013-06-08 00:50:00,
2013-06-07 20:55:00,68.9,68.7,29.59,NW,315,0.7,2.2,99,0.00,,,0.78,fowsr,2013-06-08 00:55:00,
2013-06-07 21:00:00,68.9,68.7,29.58,East,90,1.6,3.1,99,0.00,,,0.78,fowsr,2013-06-08 01:00:00,
2013-06-07 21:05:00,68.9,68.7,29.58,NE,45,0.7,2.2,99,0.00,,,0.78,fowsr,2013-06-08 01:05:00,
2013-06-07 21:10:00,68.9,68.7,29.59,NE,45,1.6,3.1,99,0.00,,,0.78,fowsr,2013-06-08 01:10:00,
2013-06-07 21:15:00,68.9,68.7,29.58,NW,315,0.7,1.6,99,0.00,,,0.78,fowsr,2013-06-08 01:15:00,
2013-06-07 21:20:00,68.9,68.7,29.58,NW,315,2.2,3.8,99,0.00,,,0.78,fowsr,2013-06-08 01:20:00,
2013-06-07 21:25:00,68.9,68.7,29.58,North,0,1.6,3.1,99,0.00,,,0.78,fowsr,2013-06-08 01:25:00,
2013-06-07 21:30:00,68.9,68.7,29.58,South,180,1.6,3.1,99,0.00,,,0.78,fowsr,2013-06-08 01:30:00,
2013-06-07 21:39:00,68.9,68.7,29.58,SW,225,2.2,5.4,99,0.00,,,0.78,fowsr,2013-06-08 01:39:00,
2013-06-07 21:45:00,68.9,68.7,29.58,South,180,0.7,2.2,99,0.00,,,0.78,fowsr,2013-06-08 01:45:00,
2013-06-07 21:50:00,68.9,68.7,29.58,NE,45,0.7,2.2,99,0.00,,,0.78,fowsr,2013-06-08 01:50:00,
2013-06-07 21:58:00,68.7,68.5,29.58,SE,135,0.7,1.6,99,0.00,,,0.78,fowsr,2013-06-08 01:58:00,
2013-06-07 22:03:00,68.7,68.5,29.60,NW,315,1.6,2.2,99,0.00,,,0.78,fowsr,2013-06-08 02:03:00,
2013-06-07 22:10:00,68.4,68.1,29.58,NW,315,0.7,1.6,99,0.00,,,0.78,fowsr,2013-06-08 02:10:00,
2013-06-07 22:15:00,68.4,68.1,29.58,NW,315,1.6,2.2,99,0.00,,,0.78,fowsr,2013-06-08 02:15:00,
2013-06-07 22:23:00,68.4,68.1,29.58,East,90,0.7,2.2,99,0.00,,,0.78,fowsr,2013-06-08 02:23:00,
2013-06-07 22:28:00,68.4,68.1,29.58,West,270,0.7,2.2,99,0.00,,,0.78,fowsr,2013-06-08 02:28:00,
2013-06-07 22:35:00,68.4,68.1,29.57,NW,315,0.7,1.6,99,0.00,,,0.78,fowsr,2013-06-08 02:35:00,
2013-06-07 22:40:00,68.4,68.1,29.57,North,0,0.7,1.6,99,0.00,,,0.78,fowsr,2013-06-08 02:40:00,
2013-06-07 22:48:00,68.4,68.1,29.57,West,270,1.6,3.1,99,0.00,,,0.78,fowsr,2013-06-08 02:48:00,
2013-06-07 22:55:00,68.4,68.1,29.56,NE,45,0.7,1.6,99,0.00,,,0.78,fowsr,2013-06-08 02:55:00,
2013-06-07 23:00:00,68.4,68.1,29.56,SE,135,0.7,1.6,99,0.00,,,0.78,fowsr,2013-06-08 03:00:00,
2013-06-07 23:08:00,68.4,68.1,29.55,NE,45,0.7,2.2,99,0.00,,,0.78,fowsr,2013-06-08 03:08:00,
2013-06-07 23:15:00,68.4,68.1,29.55,North,0,0.0,0.7,99,0.00,,,0.78,fowsr,2013-06-08 03:15:00,
2013-06-07 23:20:00,68.4,68.1,29.55,North,0,0.7,2.2,99,0.00,,,0.78,fowsr,2013-06-08 03:20:00,
2013-06-07 23:25:00,68.4,68.1,29.55,NW,315,0.0,0.7,99,0.01,,,0.79,fowsr,2013-06-08 03:25:00,
2013-06-07 23:30:00,68.2,68.0,29.55,East,90,0.0,0.7,99,0.01,,,0.79,fowsr,2013-06-08 03:30:00,
2013-06-07 23:35:00,68.2,68.0,29.55,NW,315,0.0,0.7,99,0.02,,,0.80,fowsr,2013-06-08 03:35:00,
2013-06-07 23:40:00,68.0,67.8,29.55,NW,315,0.7,1.6,99,0.04,,,0.81,fowsr,2013-06-08 03:40:00,
2013-06-07 23:45:00,67.8,67.6,29.56,North,0,0.7,1.6,99,0.05,,,0.83,fowsr,2013-06-08 03:45:00,
2013-06-07 23:53:00,67.6,67.4,29.55,NW,315,0.7,1.6,99,0.06,,,0.84,fowsr,2013-06-08 03:53:00,